軌道要素
Epoch 2007 May 20.0 TT = JDT 2454240.5
T 2007 May 11.24787 TT MPCW
q 1.8799041 (2000.0) P Q
n 0.11468529 Peri. 30.33266 +0.97014801 -0.22314996
a 4.1956337 Node 341.81200 +0.11104317 +0.75684439
e 0.5519380 Incl. 17.71115 +0.21559742 +0.61432130
P 8.59
From 250 observations 1998 Aug. 27-2015 Oct. 4, mean residual 0".9.
|